DECAYED
Showing default

MUSAT1, 56967 (Decayed)

Orbit data source: Space-Track

MUSAT1, 56967 was a payload satellite owned by Muon Space (US) in LEO that was launched on Mon, 12 Jun 2023 UTC via an FALCON 9 launch vehicle from the Air Force Western Test Range (AFWTR). Payload-class satellites include a variety of spacecraft equipped with specific instruments for various scientific and technological missions. These include communications satellites like Starlink; space stations such as the ISS; scientific satellites like the Hubble; Earth observation satellites from companies like Planet Labs, Umbra, and HawkEye 360; GPS; miniature CubeSats for education and research; and military/defense satellites.

Not visible in the next 10 days
Identifier
56967, 2023-084AM
Orbit
Decayed
Last TLE update
7 months ago
Origin
Manufacturer
Muon Space
Mission
Decayed Commercial Imaging
Bus & Motor
MUON, Unknown motor
Mass
59 kg wet, 59 kg dry
Launch date (UTC)
2023-06-12 (2 years ago)
Launch vehicle
FALCON 9
Launch site
Air Force Western Test Range (AFWTR)
Object type
Payload
Rocket body
Debris
Shape & HBR
Box, 0.5 m
Radar Cross Section
0.195 m², Medium (>0.1 m² and < 1m²)

Expand to show TLE details & history

TLE from 7 months ago
0 MUSAT1
1 56967U 23084AM  24344.62435562  .11629901  25836-5  10620-2 0  9999
2 56967  97.5165 115.3383 0011368 295.1782  64.8337 16.38772152 83571
Epoch: 2024-12-09T14:59Z
TLE epoch observation values (Epoch: 2024-12-09T14:59:04.325Z)
Latitude
-0.00003°
Longitude
171.72521°
Altitude
169.158 km
Speed
7.807 km/s
True Right ascension
07h 41m 21s
True Declination
0° 00' 00"
Sunlit
Object was in full shadow at epoch
Visualization orbit readout
Visualization observer readout
Orbital elements
Apogee altitude
173.324 km
Perigee altitude
158.446 km
Semi-major axis
6,544.022 km
Eccentricity
0.00114
Inclination
97.5165°
RAAN
115.3383°
Arg. of periapsis
295.1782°
True anomaly
Unknown
Mean anomaly
64.8337°
Eccentric anomaly
Unknown
Mean motion
4.09993 °/min
Orbital period
87.81 mins
BSTAR
0.001062
Loading maneuver chart data...
Loading SW <> Apogee altitude chart data...
Loading historical data...
Loading historical data...
Loading historical data...
Loading historical data...
Loading historical data...
Loading historical data...
Loading historical data...

MUSAT1 Visibility

Observer location: undefined°, undefined°

This satellite is decayed
Span
Click to sort rows by Start time (UTC) header in descending order
Start Az.
Max El. time (UTC)
Max El. Az.
Max El.
End time (UTC)
End Az.
|